Zurück zum Katalog

TELECOM 1C

AktivKommunikationGEO
NORAD 18952·PAYLOAD·🇫🇷 France

Gestartet Mar 11, 1988 von Guiana Space Centre

Loading…

TLE

AktuellSource: Space-Track

Epoche: Sep 13, 2026, 22:27 UTC

1 18952U 88018B   26256.93592948 -.00000168  00000-0  00000-0 0  9996
2 18952  15.0526 348.6478 0099309 158.7208 194.2422  0.97959246116314

Verfolge TELECOM 1C in Echtzeit mit AllMySat

Download on the App Store